This is the latest recevied weather packets stored in our database for station/object 9W2GDL-10. If no packets are shown the sender has not sent any weather packets the latest 10 day(s).
| Time | Temp. | Humidity | Pressure | Rain* | Wind** | Luminosity | Snow |
|---|---|---|---|---|---|---|---|
| 1788078717 | 31.11° C | 49% | 1009.8 hPa | - | - | - | - |
| 1788078116 | 31.67° C | 49% | 1009.9 hPa | - | - | - | - |
| 1788077516 | 32.78° C | 48% | 1009.9 hPa | - | - | - | - |
| 1788076915 | 32.22° C | 50% | 1009.9 hPa | - | - | - | - |
| 1788076314 | 33.89° C | 52% | 1010 hPa | - | - | - | - |
| 1788075713 | 35.56° C | 58% | 1010.1 hPa | - | - | - | - |
| 1788075112 | 36.67° C | 57% | 1010.1 hPa | - | - | - | - |
| 1788074511 | 36.11° C | 57% | 1010.3 hPa | - | - | - | - |
| 1788073910 | 36.11° C | 57% | 1010.2 hPa | - | - | - | - |
| 1788073310 | 36.11° C | 57% | 1010.4 hPa | - | - | - | - |
| 1788072709 | 36.11° C | 57% | 1010.4 hPa | - | - | - | - |
| 1788072108 | 36.11° C | 57% | 1010.7 hPa | - | - | - | - |
| 1788071507 | 36.11° C | 57% | 1010.7 hPa | - | - | - | - |
| 1788070906 | 36.11° C | 57% | 1010.8 hPa | - | - | - | - |
| 1788070305 | 36.11° C | 57% | 1011.1 hPa | - | - | - | - |
| 1788069704 | 35.56° C | 58% | 1011.3 hPa | - | - | - | - |
| 1788069103 | 35.56° C | 59% | 1011.4 hPa | - | - | - | - |
| 1788068503 | 35.56° C | 59% | 1011.4 hPa | - | - | - | - |
| 1788067902 | 35.56° C | 59% | 1011.5 hPa | - | - | - | - |
| 1788067301 | 35° C | 60% | 1011.7 hPa | - | - | - | - |
| 1788066700 | 35° C | 60% | 1011.8 hPa | - | - | - | - |
| 1788066099 | 35° C | 60% | 1011.9 hPa | - | - | - | - |
| 1788065498 | 34.44° C | 61% | 1012 hPa | - | - | - | - |
| 1788064898 | 34.44° C | 61% | 1012 hPa | - | - | - | - |
| 1788064297 | 34.44° C | 61% | 1012.4 hPa | - | - | - | - |
* Rain since midnight (hover to see other rain measurements)
** Current wind speed in m/s (hover to see current wind gust speed)